Wind_Speed
38 39 40 41 43 44 45 47 48 49 50 50 51 50 51 51 51 52 53 55 56 57 58 59 60 60 61 62 62 61 61 61 60 60 61 62 62 62 62 61 59 57 55
40 41 42 44 46 47 49 50 51 52 52 52 52 53 53 53 53 54 55 55 56 57 57 58 58 59 58 58 58 58 58 59 58 58 58 59 59 58 56 55 53 50 47
44 45 46 47 49 50 51 52 53 53 53 54 54 54 54 54 54 55 55 55 56 56 56 56 56 55 55 55 55 55 55 55 56 55 55 54 53 51 50 47 44 42 40
46 47 48 50 51 52 53 54 54 54 54 54 54 54 55 55 55 55 55 55 54 54 53 52 52 52 52 52 52 52 52 53 52 50 48 46 44 43 41 39 37 36 36
47 49 50 51 52 53 54 54 55 55 55 55 55 55 55 54 54 54 53 52 50 50 49 49 49 49 50 50 50 50 49 48 45 43 40 38 36 36 35 34 33 33 34
46 48 50 51 52 53 54 54 54 54 54 54 54 54 53 53 52 51 50 49 48 47 48 48 48 48 48 47 47 46 44 40 37 35 33 32 31 31 32 32 33 32 31
47 49 50 51 52 53 53 53 52 52 52 52 52 51 50 49 49 48 47 47 47 47 47 47 47 46 44 43 41 39 36 32 30 28 27 28 29 30 31 30 30 29 28
48 49 50 50 51 51 50 50 50 50 49 49 49 48 47 47 46 46 46 46 46 45 45 44 42 41 39 36 34 31 28 27 25 26 27 28 29 28 27 26 25 24 24
48 48 48 48 48 48 48 47 47 47 47 46 46 45 45 45 45 45 45 45 44 43 41 38 36 33 31 28 25 23 22 22 23 25 26 26 26 26 25 23 22 21 21
46 46 46 46 46 45 45 45 44 44 44 43 43 43 44 43 43 43 42 41 39 37 35 31 28 25 22 20 17 16 17 19 22 23 24 24 24 22 21 20 19 18 18
43 44 44 43 43 43 43 42 42 42 42 42 42 41 41 40 40 38 37 35 32 29 26 23 19 16 13 11 11 13 15 17 19 20 21 21 21 19 18 18 18 18 17
41 41 41 41 40 40 40 40 40 40 39 39 38 37 36 35 33 31 28 25 23 21 18 14 11 8 7 8 9 11 14 16 17 18 19 19 18 18 18 18 18 18 16
38 38 39 39 39 39 39 38 37 36 36 35 33 31 29 27 25 22 19 17 15 13 10 7 4 4 5 7 8 11 13 15 16 17 18 17 18 18 18 18 18 18 15
37 37 38 38 37 36 36 34 33 31 30 28 25 23 22 20 17 15 13 11 9 6 3 2 2 4 6 7 9 11 13 14 16 16 17 17 18 18 19 19 19 18 15
36 36 36 35 34 32 30 28 26 24 22 20 18 17 15 14 11 9 8 5 2 1 2 3 4 6 7 8 10 12 13 15 16 17 17 18 18 19 20 20 20 19 17
34 33 31 30 27 25 22 20 17 16 14 13 12 11 10 8 6 4 1 2 4 5 5 6 7 8 9 10 12 13 15 16 17 18 18 19 19 20 21 21 21 21 20
28 26 24 22 19 16 14 12 11 9 8 7 7 6 4 3 2 4 5 7 7 7 8 8 9 9 10 12 13 15 16 18 18 19 20 20 21 21 22 22 23 23 23
22 19 16 14 12 9 8 6 5 5 4 3 3 2 3 5 7 8 9 9 9 9 9 10 10 11 12 13 15 17 18 19 19 20 21 21 22 23 24 24 24 24 25
16 14 11 8 6 4 3 2 2 2 2 3 4 6 7 9 10 10 10 10 10 10 11 11 12 12 13 15 16 18 19 20 20 21 21 22 22 23 24 25 25 25 25
14 11 8 6 4 3 3 3 4 5 6 7 8 9 10 11 11 11 11 11 11 12 12 12 13 14 14 16 17 18 20 21 22 22 23 23 23 23 24 24 25 25 24
14 12 9 8 7 7 7 7 7 8 9 11 12 12 12 12 12 12 12 12 12 12 13 13 14 14 15 16 17 18 20 21 22 24 24 25 25 25 24 24 24 24 24
17 15 13 12 10 10 10 10 11 12 13 14 14 14 13 13 12 12 12 12 12 13 13 13 13 14 15 16 17 18 20 21 22 23 24 25 25 25 25 25 24 23 23
19 18 16 15 14 13 13 13 13 14 14 14 14 14 13 13 12 12 12 12 13 13 13 13 13 13 14 15 16 18 19 20 21 22 23 23 24 24 25 24 24 23 23
20 19 17 16 15 14 14 14 14 14 14 14 13 13 12 12 12 12 12 12 12 12 12 12 13 13 13 14 15 16 17 18 20 21 21 22 23 23 23 23 23 22 22
20 18 17 15 14 14 13 13 13 13 13 12 12 12 12 12 12 11 11 11 11 11 11 11 12 12 12 13 14 15 16 17 18 19 20 20 21 22 22 22 22 22 21
20 18 16 14 13 12 11 11 11 11 11 11 11 11 11 11 11 11 11 11 11 11 11 11 11 11 11 12 12 13 14 16 17 17 18 19 20 20 21 21 21 21 20
Wind_Direction
275 279 282 285 289 293 295 297 299 299 299 299 298 296 295 294 292 291 290 289 289 288 288 288 289 289 289 290 290 291 291 291 291 291 291 291 290 290 290 290 289 288 287
278 281 284 287 290 293 295 296 296 297 297 296 295 294 294 293 292 291 290 290 290 289 289 289 290 290 290 291 292 292 293 293 294 294 293 293 293 293 292 291 290 289 288
280 282 285 288 290 292 294 294 294 295 295 295 294 294 293 293 292 292 291 291 290 290 290 291 291 292 292 293 294 295 295 295 296 297 297 296 296 295 295 294 293 291 290
280 282 285 287 290 291 292 292 293 293 294 294 293 293 293 293 293 292 292 291 291 291 292 292 293 294 294 295 296 297 297 298 299 299 300 300 299 298 298 297 295 293 292
283 284 286 288 290 290 291 291 292 292 292 292 292 293 293 293 293 293 293 293 293 293 294 294 295 296 296 297 298 299 300 301 301 302 302 302 301 301 300 299 297 296 294
285 286 287 288 288 289 289 290 290 291 291 292 292 293 293 293 293 293 294 295 295 296 296 296 297 297 298 300 300 301 302 303 304 305 305 304 304 303 302 301 299 298 296
286 287 287 287 288 288 289 290 290 291 291 292 293 293 293 294 294 295 295 296 296 297 297 298 299 300 301 302 302 303 304 306 308 309 309 309 308 307 306 304 303 302 301
287 288 288 288 289 289 290 290 291 292 292 293 293 294 294 295 295 296 296 297 298 298 299 300 300 301 302 302 303 304 307 311 313 314 315 315 315 314 313 312 310 308 307
288 288 289 289 289 289 290 291 292 292 292 293 294 294 295 295 296 297 297 298 299 300 300 301 301 301 301 302 303 306 311 314 317 320 321 321 321 321 320 318 317 315 314
289 289 289 290 290 291 291 292 292 293 294 294 294 295 295 296 297 298 299 300 300 301 301 301 301 300 300 302 305 311 316 321 324 327 328 329 329 329 329 330 329 326 323
291 291 291 291 292 292 293 293 293 294 294 294 295 295 296 297 297 298 298 299 299 300 301 301 302 301 302 307 314 321 326 329 332 334 336 337 338 339 340 339 336 332 329
292 292 292 292 293 293 293 294 294 294 295 295 296 296 296 297 297 298 298 298 298 300 302 304 306 310 315 323 330 335 338 340 343 345 346 348 349 349 347 345 343 339 336
294 294 294 294 294 294 295 295 295 295 296 297 297 298 298 298 299 299 298 298 299 302 305 309 318 335 343 346 348 349 351 353 355 356 357 358 0 359 358 357 355 352 349
297 297 296 296 296 296 296 296 296 296 297 297 298 298 299 300 301 300 300 300 301 304 313 348 17 15 13 10 7 4 5 6 6 8 10 11 12 12 12 11 9 8 8
301 300 299 298 298 298 297 297 296 296 296 297 298 299 301 303 304 304 305 302 306 54 83 72 55 42 35 29 25 21 19 18 19 21 21 23 24 24 24 23 23 25 28
305 304 302 301 301 299 299 298 297 297 297 300 302 304 306 309 313 317 347 99 104 100 90 77 66 56 48 43 38 34 31 29 29 31 31 32 32 32 32 33 35 38 41
311 309 307 306 305 303 301 299 299 302 305 309 313 317 324 346 58 96 104 105 102 95 86 79 73 65 59 52 47 43 40 38 38 40 40 40 41 41 41 42 44 46 48
320 317 314 312 310 307 304 303 306 314 324 337 356 26 69 94 101 101 101 100 95 90 86 82 77 71 65 60 53 49 46 45 45 45 45 46 47 47 48 49 50 52 55
334 332 330 328 328 327 326 328 356 29 47 60 74 87 97 100 98 97 96 94 90 89 88 85 81 76 72 65 59 55 52 49 48 48 49 50 50 51 51 52 54 55 57
355 358 3 12 30 47 63 79 83 85 87 88 91 96 99 97 95 94 92 91 89 90 90 89 85 81 76 69 64 59 56 53 52 52 53 53 53 53 53 54 55 57 59
21 28 38 53 66 74 81 88 93 94 94 94 95 96 95 94 92 90 90 91 90 92 92 91 88 83 77 71 67 62 59 56 55 55 55 55 55 54 54 55 56 57 58
39 46 54 63 71 79 86 91 94 96 95 94 93 93 93 91 89 89 90 91 91 93 93 91 89 85 78 73 69 65 62 58 56 55 54 54 54 53 54 55 56 57 58
47 53 59 67 75 81 86 90 93 94 93 91 91 90 89 88 88 90 91 92 93 95 95 93 90 86 80 75 70 67 63 59 56 54 52 51 51 51 51 51 52 54 56
50 55 61 67 74 80 85 89 91 92 91 89 88 87 86 86 87 90 91 93 95 97 97 96 92 87 82 76 72 67 62 58 55 53 51 50 49 49 49 49 49 50 52
49 52 56 63 70 77 82 86 89 90 90 88 86 85 85 86 88 90 92 95 97 99 99 98 94 89 83 78 72 66 61 57 54 51 49 48 47 46 46 46 47 47 49
46 47 51 56 64 72 78 83 87 89 90 88 86 84 84 86 89 90 92 96 98 100 100 100 97 92 85 79 71 65 61 57 53 49 47 46 46 45 44 44 44 45 46
Height
5791 5788 5785 5782 5779 5775 5772 5769 5765 5761 5758 5754 5751 5747 5743 5740 5736 5731 5727 5723 5718 5712 5707 5702 5697 5691 5685 5679 5672 5666 5659 5653 5648 5642 5633 5626 5619 5613 5606 5600 5595 5590 5585
5780 5777 5774 5771 5768 5764 5760 5756 5753 5749 5745 5741 5737 5733 5729 5725 5720 5716 5712 5707 5702 5697 5691 5686 5681 5675 5669 5663 5657 5650 5644 5637 5631 5625 5618 5610 5602 5595 5589 5583 5578 5573 5569
5768 5765 5762 5759 5756 5752 5748 5744 5740 5735 5731 5727 5722 5718 5713 5709 5705 5700 5696 5691 5686 5681 5676 5670 5665 5659 5654 5648 5642 5635 5629 5622 5615 5609 5602 5594 5587 5580 5574 5569 5564 5560 5556
5756 5753 5750 5746 5743 5739 5734 5730 5726 5721 5717 5712 5708 5703 5699 5694 5690 5685 5681 5676 5671 5666 5661 5656 5651 5645 5640 5634 5628 5621 5615 5608 5600 5594 5587 5581 5574 5567 5562 5557 5553 5549 5545
5743 5740 5737 5733 5729 5725 5721 5716 5712 5707 5702 5698 5693 5689 5684 5680 5675 5670 5666 5661 5657 5652 5647 5642 5637 5632 5626 5620 5614 5608 5601 5595 5588 5582 5576 5570 5564 5558 5553 5548 5543 5539 5535
5729 5726 5723 5719 5715 5711 5706 5702 5697 5692 5688 5683 5679 5674 5670 5665 5661 5656 5652 5648 5643 5638 5633 5628 5623 5619 5613 5607 5602 5595 5589 5583 5578 5572 5567 5561 5556 5550 5545 5540 5535 5530 5526
5716 5713 5709 5704 5700 5696 5692 5687 5683 5678 5674 5669 5664 5660 5656 5652 5647 5643 5639 5635 5630 5626 5620 5615 5610 5606 5601 5595 5590 5584 5579 5574 5570 5565 5560 5554 5549 5544 5538 5532 5526 5521 5517
5702 5698 5694 5690 5686 5682 5677 5673 5669 5664 5660 5656 5651 5647 5643 5639 5635 5631 5626 5622 5618 5613 5608 5603 5599 5594 5590 5585 5580 5576 5572 5567 5563 5558 5553 5548 5542 5536 5530 5525 5519 5515 5510
5689 5685 5681 5677 5672 5668 5664 5660 5655 5651 5647 5643 5639 5635 5631 5627 5623 5619 5614 5610 5606 5602 5597 5593 5589 5585 5581 5577 5573 5570 5567 5563 5558 5553 5548 5542 5536 5530 5525 5519 5514 5510 5505
5676 5672 5668 5664 5660 5655 5651 5647 5643 5639 5635 5631 5627 5623 5619 5615 5612 5607 5603 5599 5595 5591 5588 5584 5581 5578 5575 5572 5569 5566 5563 5559 5555 5550 5544 5538 5532 5526 5521 5515 5510 5506 5501
5664 5660 5655 5651 5647 5643 5639 5635 5631 5627 5624 5620 5616 5612 5608 5604 5601 5597 5593 5589 5586 5582 5580 5577 5574 5572 5570 5568 5566 5564 5561 5557 5552 5547 5541 5536 5530 5524 5519 5513 5508 5503 5499
5653 5648 5644 5639 5636 5632 5628 5624 5620 5617 5613 5609 5606 5602 5598 5595 5592 5588 5585 5582 5579 5576 5574 5572 5571 5569 5568 5567 5565 5562 5559 5555 5550 5545 5540 5534 5529 5523 5518 5512 5507 5502 5497
5642 5637 5633 5629 5625 5621 5617 5613 5610 5606 5603 5599 5596 5593 5590 5587 5584 5581 5579 5577 5574 5572 5571 5570 5569 5568 5567 5566 5564 5561 5558 5554 5549 5545 5539 5534 5529 5523 5518 5512 5506 5501 5495
5632 5627 5622 5618 5614 5610 5606 5603 5600 5597 5594 5591 5588 5585 5583 5581 5578 5576 5574 5573 5571 5570 5570 5569 5569 5568 5567 5565 5563 5561 5557 5554 5549 5545 5540 5535 5530 5524 5518 5513 5507 5501 5496
5622 5617 5612 5607 5604 5600 5597 5594 5591 5589 5587 5585 5582 5580 5578 5576 5575 5573 5571 5571 5570 5570 5570 5570 5569 5569 5567 5566 5564 5561 5558 5554 5550 5546 5541 5536 5531 5526 5520 5514 5509 5503 5497
5612 5607 5602 5598 5595 5592 5590 5587 5585 5584 5582 5580 5579 5577 5575 5574 5572 5571 5571 5570 5570 5571 5571 5571 5570 5569 5568 5567 5565 5562 5559 5555 5551 5547 5543 5538 5533 5528 5523 5517 5512 5507 5501
5604 5599 5595 5591 5589 5586 5584 5583 5582 5580 5579 5578 5577 5575 5574 5573 5572 5572 5572 5572 5572 5572 5572 5572 5572 5571 5570 5569 5566 5564 5561 5557 5554 5550 5546 5541 5536 5532 5527 5522 5517 5512 5507
5598 5593 5590 5587 5584 5583 5581 5580 5580 5579 5578 5577 5576 5575 5574 5574 5574 5573 5574 5574 5574 5574 5574 5574 5574 5573 5572 5571 5569 5566 5563 5560 5556 5553 5549 5545 5540 5536 5531 5527 5522 5517 5513
5594 5590 5587 5584 5582 5581 5580 5579 5579 5578 5578 5577 5577 5576 5576 5576 5576 5576 5576 5576 5576 5576 5576 5577 5576 5576 5575 5574 5572 5569 5567 5563 5560 5556 5553 5549 5545 5541 5537 5533 5528 5524 5520
5592 5588 5586 5584 5582 5581 5581 5580 5580 5579 5579 5579 5578 5578 5578 5578 5579 5579 5579 5579 5579 5579 5579 5579 5579 5579 5578 5577 5575 5573 5570 5567 5564 5561 5557 5553 5550 5546 5542 5538 5535 5531 5527
5592 5589 5587 5585 5584 5583 5582 5582 5582 5582 5581 5581 5581 5581 5581 5582 5582 5582 5582 5582 5582 5582 5583 5583 5583 5582 5581 5580 5579 5577 5574 5572 5569 5566 5562 5559 5555 5552 5548 5544 5541 5538 5534
5596 5593 5590 5588 5587 5586 5586 5585 5585 5585 5585 5585 5585 5585 5585 5585 5585 5585 5585 5585 5586 5586 5586 5586 5586 5586 5585 5584 5582 5581 5579 5576 5574 5571 5568 5564 5561 5558 5554 5551 5547 5544 5541
5601 5598 5595 5593 5592 5591 5590 5590 5589 5589 5589 5589 5589 5589 5589 5589 5589 5589 5589 5589 5589 5589 5590 5590 5590 5589 5589 5588 5587 5585 5583 5581 5579 5576 5573 5570 5567 5563 5560 5557 5553 5550 5547
5607 5604 5601 5599 5598 5596 5595 5595 5594 5594 5594 5594 5594 5593 5593 5593 5593 5593 5593 5593 5593 5593 5593 5593 5593 5593 5592 5592 5591 5589 5587 5585 5583 5581 5578 5575 5572 5569 5566 5562 5559 5556 5553
5612 5609 5607 5604 5603 5601 5600 5599 5599 5599 5598 5598 5598 5597 5597 5597 5597 5597 5596 5596 5596 5597 5597 5597 5597 5597 5596 5595 5594 5593 5591 5590 5587 5585 5583 5580 5577 5574 5571 5568 5564 5561 5558
5617 5614 5611 5609 5607 5605 5604 5603 5603 5602 5602 5602 5602 5601 5601 5601 5600 5600 5600 5600 5600 5600 5600 5600 5600 5600 5600 5599 5598 5597 5595 5594 5591 5589 5587 5584 5581 5578 5575 5572 5569 5566 5563